iso_date,epoch_date,Year,Hour,Min,DOY,POS_DOY,Lat,Lon,BP,Ts,Ta,has_bp,has_ts,has_ta,BuoyID,Buoy_Type,Buoy_Owner,Logistics,Hemisphere
2021-08-18T23:24:00Z,1629329040,2021,23,24,230.975,230.975,70.06458,-52.36038,-999.00,-999.00,-999.0,no,no,no,4435293,SPIT,USIABP,ICE-PPR<br>DiskoBay,North
2021-08-18T23:33:56Z,1629329636,2021,23,34,230.9819,230.9819,70.06422,-52.36084,-999.00,-999.00,-999.0,no,no,no,4435293,SPIT,USIABP,ICE-PPR<br>DiskoBay,North
2021-08-19T00:04:01Z,1629331442,2021,0,4,231.0028,231.0028,70.06425,-52.3605,-999.00,-999.00,-999.0,no,no,no,4435293,SPIT,USIABP,ICE-PPR<br>DiskoBay,North
2021-08-19T00:32:58Z,1629333179,2021,0,33,231.0229,231.0229,70.06455,-52.36026,-999.00,-999.00,-999.0,no,no,no,4435293,SPIT,USIABP,ICE-PPR<br>DiskoBay,North
2021-08-19T01:02:55Z,1629334976,2021,1,3,231.0437,231.0437,70.06434,-52.3606,-999.00,-999.00,-999.0,no,no,no,4435293,SPIT,USIABP,ICE-PPR<br>DiskoBay,North
2021-08-19T01:33:01Z,1629336781,2021,1,33,231.0646,231.0646,70.06422,-52.36157,-999.00,-999.00,-999.0,no,no,no,4435293,SPIT,USIABP,ICE-PPR<br>DiskoBay,North
2021-08-19T02:02:58Z,1629338579,2021,2,3,231.0854,231.0854,70.06435,-52.36102,-999.00,-999.00,-999.0,no,no,no,4435293,SPIT,USIABP,ICE-PPR<br>DiskoBay,North
2021-08-19T02:33:04Z,1629340384,2021,2,33,231.1063,231.1063,70.06458,-52.36055,-999.00,-999.00,-999.0,no,no,no,4435293,SPIT,USIABP,ICE-PPR<br>DiskoBay,North
2021-08-19T03:03:01Z,1629342181,2021,3,3,231.1271,231.1271,70.06449,-52.36081,-999.00,-999.00,-999.0,no,no,no,4435293,SPIT,USIABP,ICE-PPR<br>DiskoBay,North
2021-08-19T03:32:58Z,1629343979,2021,3,33,231.1479,231.1479,70.06452,-52.3606,-999.00,-999.00,-999.0,no,no,no,4435293,SPIT,USIABP,ICE-PPR<br>DiskoBay,North
2021-08-19T04:02:03Z,1629345724,2021,4,2,231.1681,231.1681,70.06452,-52.36038,-999.00,-999.00,-999.0,no,no,no,4435293,SPIT,USIABP,ICE-PPR<br>DiskoBay,North
2021-08-19T04:32:00Z,1629347521,2021,4,32,231.1889,231.1889,70.06452,-52.36038,-999.00,-999.00,-999.0,no,no,no,4435293,SPIT,USIABP,ICE-PPR<br>DiskoBay,North
2021-08-19T05:32:03Z,1629351124,2021,5,32,231.2306,231.2306,70.06422,-52.36063,-999.00,-999.00,-999.0,no,no,no,4435293,SPIT,USIABP,ICE-PPR<br>DiskoBay,North
2021-08-19T06:01:00Z,1629352860,2021,6,1,231.2507,231.2507,70.06425,-52.36047,-999.00,-999.00,-999.0,no,no,no,4435293,SPIT,USIABP,ICE-PPR<br>DiskoBay,North
2021-08-19T09:29:57Z,1629365397,2021,9,30,231.3958,231.3958,70.06415,-52.36075,-999.00,-999.00,-999.0,no,no,no,4435293,SPIT,USIABP,ICE-PPR<br>DiskoBay,North
2021-08-19T10:00:02Z,1629367203,2021,10,0,231.4167,231.4167,70.06432,-52.35999,-999.00,-999.00,-999.0,no,no,no,4435293,SPIT,USIABP,ICE-PPR<br>DiskoBay,North
2021-08-19T10:30:00Z,1629369000,2021,10,30,231.4375,231.4375,70.06458,-52.36014,-999.00,-999.00,-999.0,no,no,no,4435293,SPIT,USIABP,ICE-PPR<br>DiskoBay,North
2021-08-19T10:59:57Z,1629370797,2021,11,0,231.4583,231.4583,70.06471,-52.36005,-999.00,-999.00,-999.0,no,no,no,4435293,SPIT,USIABP,ICE-PPR<br>DiskoBay,North
2021-08-19T11:30:02Z,1629372603,2021,11,30,231.4792,231.4792,70.06458,-52.36005,-999.00,-999.00,-999.0,no,no,no,4435293,SPIT,USIABP,ICE-PPR<br>DiskoBay,North
2021-08-19T13:28:59Z,1629379740,2021,13,29,231.5618,231.5618,70.06287,-52.55872,-999.00,-999.00,-999.0,no,no,no,4435293,SPIT,USIABP,ICE-PPR<br>DiskoBay,North
2021-08-19T15:27:56Z,1629386876,2021,15,28,231.6444,231.6444,70.27717,-53.54565,-999.00,-999.00,-999.0,no,no,no,4435293,SPIT,USIABP,ICE-PPR<br>DiskoBay,North
2021-08-19T15:58:01Z,1629388682,2021,15,58,231.6653,231.6653,70.30266,-53.67749,-999.00,-999.00,-999.0,no,no,no,4435293,SPIT,USIABP,ICE-PPR<br>DiskoBay,North
2021-08-19T16:27:59Z,1629390479,2021,16,28,231.6861,231.6861,70.31828,-53.80685,-999.00,-999.00,-999.0,no,no,no,4435293,SPIT,USIABP,ICE-PPR<br>DiskoBay,North
2021-08-19T17:28:01Z,1629394082,2021,17,28,231.7278,231.7278,70.28382,-53.57285,-999.00,-999.00,-999.0,no,no,no,4435293,SPIT,USIABP,ICE-PPR<br>DiskoBay,North
2021-08-19T18:27:04Z,1629397624,2021,18,27,231.7688,231.7688,70.21109,-52.97119,-999.00,-999.00,-999.0,no,no,no,4435293,SPIT,USIABP,ICE-PPR<br>DiskoBay,North
2021-08-19T20:26:00Z,1629404761,2021,20,26,231.8514,231.8514,70.0657,-52.36595,-999.00,-999.00,-999.0,no,no,no,4435293,SPIT,USIABP,ICE-PPR<br>DiskoBay,North
2021-08-19T20:55:58Z,1629406558,2021,20,56,231.8722,231.8722,70.06613,-52.36492,-999.00,-999.00,-999.0,no,no,no,4435293,SPIT,USIABP,ICE-PPR<br>DiskoBay,North
2021-08-19T21:26:03Z,1629408364,2021,21,26,231.8931,231.8931,70.06583,-52.36578,-999.00,-999.00,-999.0,no,no,no,4435293,SPIT,USIABP,ICE-PPR<br>DiskoBay,North
2021-08-19T21:56:00Z,1629410161,2021,21,56,231.9139,231.9139,70.06627,-52.36459,-999.00,-999.00,-999.0,no,no,no,4435293,SPIT,USIABP,ICE-PPR<br>DiskoBay,North
2021-08-19T22:25:58Z,1629411958,2021,22,26,231.9347,231.9347,70.06576,-52.36588,-999.00,-999.00,-999.0,no,no,no,4435293,SPIT,USIABP,ICE-PPR<br>DiskoBay,North
2021-08-19T22:56:03Z,1629413764,2021,22,56,231.9556,231.9556,70.06623,-52.36478,-999.00,-999.00,-999.0,no,no,no,4435293,SPIT,USIABP,ICE-PPR<br>DiskoBay,North
2021-08-19T23:54:57Z,1629417298,2021,23,55,231.9965,231.9965,70.06613,-52.36392,-999.00,-999.00,-999.0,no,no,no,4435293,SPIT,USIABP,ICE-PPR<br>DiskoBay,North
2021-08-20T00:25:03Z,1629419103,2021,0,25,232.0174,232.0174,70.06538,-52.3624,-999.00,-999.00,-999.0,no,no,no,4435293,SPIT,USIABP,ICE-PPR<br>DiskoBay,North
2021-08-20T01:24:57Z,1629422698,2021,1,25,232.059,232.059,70.06527,-52.36253,-999.00,-999.00,-999.0,no,no,no,4435293,SPIT,USIABP,ICE-PPR<br>DiskoBay,North
2021-08-20T01:55:03Z,1629424503,2021,1,55,232.0799,232.0799,70.0651,-52.36365,-999.00,-999.00,-999.0,no,no,no,4435293,SPIT,USIABP,ICE-PPR<br>DiskoBay,North
2021-08-20T02:25:00Z,1629426300,2021,2,25,232.1007,232.1007,70.06516,-52.3642,-999.00,-999.00,-999.0,no,no,no,4435293,SPIT,USIABP,ICE-PPR<br>DiskoBay,North
2021-08-20T03:24:02Z,1629429843,2021,3,24,232.1417,232.1417,70.06506,-52.36348,-999.00,-999.00,-999.0,no,no,no,4435293,SPIT,USIABP,ICE-PPR<br>DiskoBay,North
2021-08-20T03:54:00Z,1629431640,2021,3,54,232.1625,232.1625,70.06519,-52.36288,-999.00,-999.00,-999.0,no,no,no,4435293,SPIT,USIABP,ICE-PPR<br>DiskoBay,North
2021-08-20T04:24:57Z,1629433498,2021,4,25,232.184,232.184,70.06492,-52.35947,-999.00,-999.00,-999.0,no,no,no,4435293,SPIT,USIABP,ICE-PPR<br>DiskoBay,North
2021-08-20T04:54:02Z,1629435243,2021,4,54,232.2042,232.2042,70.06473,-52.35981,-999.00,-999.00,-999.0,no,no,no,4435293,SPIT,USIABP,ICE-PPR<br>DiskoBay,North
2021-08-20T05:24:00Z,1629437040,2021,5,24,232.225,232.225,70.06489,-52.35938,-999.00,-999.00,-999.0,no,no,no,4435293,SPIT,USIABP,ICE-PPR<br>DiskoBay,North
2021-08-20T05:53:57Z,1629438837,2021,5,54,232.2458,232.2458,70.06489,-52.35919,-999.00,-999.00,-999.0,no,no,no,4435293,SPIT,USIABP,ICE-PPR<br>DiskoBay,North
2021-08-20T06:23:02Z,1629440582,2021,6,23,232.266,232.266,70.06494,-52.35936,-999.00,-999.00,-999.0,no,no,no,4435293,SPIT,USIABP,ICE-PPR<br>DiskoBay,North
2021-08-20T06:52:59Z,1629442380,2021,6,53,232.2868,232.2868,70.0646,-52.36022,-999.00,-999.00,-999.0,no,no,no,4435293,SPIT,USIABP,ICE-PPR<br>DiskoBay,North
2021-08-20T07:22:56Z,1629444177,2021,7,23,232.3076,232.3076,70.0648,-52.35962,-999.00,-999.00,-999.0,no,no,no,4435293,SPIT,USIABP,ICE-PPR<br>DiskoBay,North
2021-08-20T07:53:02Z,1629445982,2021,7,53,232.3285,232.3285,70.06461,-52.36044,-999.00,-999.00,-999.0,no,no,no,4435293,SPIT,USIABP,ICE-PPR<br>DiskoBay,North
2021-08-20T08:52:56Z,1629449577,2021,8,53,232.3701,232.3701,70.0648,-52.36041,-999.00,-999.00,-999.0,no,no,no,4435293,SPIT,USIABP,ICE-PPR<br>DiskoBay,North
2021-08-20T09:23:02Z,1629451382,2021,9,23,232.391,232.391,70.0648,-52.36218,-999.00,-999.00,-999.0,no,no,no,4435293,SPIT,USIABP,ICE-PPR<br>DiskoBay,North
2021-08-20T10:21:56Z,1629454916,2021,10,22,232.4319,232.4319,70.04373,-52.40226,-999.00,-999.00,-999.0,no,no,no,4435293,SPIT,USIABP,ICE-PPR<br>DiskoBay,North
2021-08-20T10:52:01Z,1629456722,2021,10,52,232.4528,232.4528,69.99991,-52.36218,-999.00,-999.00,-999.0,no,no,no,4435293,SPIT,USIABP,ICE-PPR<br>DiskoBay,North
2021-08-20T11:21:59Z,1629458519,2021,11,22,232.4736,232.4736,69.99923,-52.36558,-999.00,-999.00,-999.0,no,no,no,4435293,SPIT,USIABP,ICE-PPR<br>DiskoBay,North
2021-08-20T11:51:56Z,1629460316,2021,11,52,232.4944,232.4944,69.99889,-52.37082,-999.00,-999.00,-999.0,no,no,no,4435293,SPIT,USIABP,ICE-PPR<br>DiskoBay,North
2021-08-20T12:22:01Z,1629462122,2021,12,22,232.5153,232.5153,69.99928,-52.37735,-999.00,-999.00,-999.0,no,no,no,4435293,SPIT,USIABP,ICE-PPR<br>DiskoBay,North
2021-08-20T12:50:58Z,1629463859,2021,12,51,232.5354,232.5354,69.99969,-52.38589,-999.00,-999.00,-999.0,no,no,no,4435293,SPIT,USIABP,ICE-PPR<br>DiskoBay,North
2021-08-20T13:20:55Z,1629465656,2021,13,21,232.5562,232.5562,70.00041,-52.39559,-999.00,-999.00,-999.0,no,no,no,4435293,SPIT,USIABP,ICE-PPR<br>DiskoBay,North
2021-08-20T13:51:01Z,1629467461,2021,13,51,232.5771,232.5771,70.00148,-52.4064,-999.00,-999.00,-999.0,no,no,no,4435293,SPIT,USIABP,ICE-PPR<br>DiskoBay,North
2021-08-20T14:20:58Z,1629469259,2021,14,21,232.5979,232.5979,70.00217,-52.41615,-999.00,-999.00,-999.0,no,no,no,4435293,SPIT,USIABP,ICE-PPR<br>DiskoBay,North
2021-08-20T14:51:04Z,1629471064,2021,14,51,232.6188,232.6188,70.0032,-52.42319,-999.00,-999.00,-999.0,no,no,no,4435293,SPIT,USIABP,ICE-PPR<br>DiskoBay,North
2021-08-20T15:21:01Z,1629472861,2021,15,21,232.6396,232.6396,70.00453,-52.42953,-999.00,-999.00,-999.0,no,no,no,4435293,SPIT,USIABP,ICE-PPR<br>DiskoBay,North
2021-08-20T15:49:58Z,1629474598,2021,15,50,232.6597,232.6597,70.0053,-52.43539,-999.00,-999.00,-999.0,no,no,no,4435293,SPIT,USIABP,ICE-PPR<br>DiskoBay,North
2021-08-20T16:20:03Z,1629476404,2021,16,20,232.6806,232.6806,70.00682,-52.43845,-999.00,-999.00,-999.0,no,no,no,4435293,SPIT,USIABP,ICE-PPR<br>DiskoBay,North
2021-08-20T16:50:00Z,1629478201,2021,16,50,232.7014,232.7014,70.0079,-52.4389,-999.00,-999.00,-999.0,no,no,no,4435293,SPIT,USIABP,ICE-PPR<br>DiskoBay,North
2021-08-20T17:19:58Z,1629479998,2021,17,20,232.7222,232.7222,70.00829,-52.43658,-999.00,-999.00,-999.0,no,no,no,4435293,SPIT,USIABP,ICE-PPR<br>DiskoBay,North
2021-08-20T18:19:00Z,1629483540,2021,18,19,232.7632,232.7632,70.00954,-52.42461,-999.00,-999.00,-999.0,no,no,no,4435293,SPIT,USIABP,ICE-PPR<br>DiskoBay,North
2021-08-20T18:48:57Z,1629485338,2021,18,49,232.784,232.784,70.00838,-52.41422,-999.00,-999.00,-999.0,no,no,no,4435293,SPIT,USIABP,ICE-PPR<br>DiskoBay,North
2021-08-20T19:19:03Z,1629487143,2021,19,19,232.8049,232.8049,70.007,-52.40366,-999.00,-999.00,-999.0,no,no,no,4435293,SPIT,USIABP,ICE-PPR<br>DiskoBay,North
2021-08-20T21:47:57Z,1629496077,2021,21,48,232.9083,232.9083,69.99896,-52.37219,-999.00,-999.00,-999.0,no,no,no,4435293,SPIT,USIABP,ICE-PPR<br>DiskoBay,North
2021-08-20T22:18:02Z,1629497883,2021,22,18,232.9292,232.9292,69.99754,-52.37228,-999.00,-999.00,-999.0,no,no,no,4435293,SPIT,USIABP,ICE-PPR<br>DiskoBay,North
2021-08-20T22:48:00Z,1629499680,2021,22,48,232.95,232.95,69.9967,-52.37527,-999.00,-999.00,-999.0,no,no,no,4435293,SPIT,USIABP,ICE-PPR<br>DiskoBay,North
2021-08-21T00:46:56Z,1629506817,2021,0,47,233.0326,233.0326,69.99708,-52.416,-999.00,-999.00,-999.0,no,no,no,4435293,SPIT,USIABP,ICE-PPR<br>DiskoBay,North
2021-08-21T01:17:02Z,1629508622,2021,1,17,233.0535,233.0535,69.9985,-52.42896,-999.00,-999.00,-999.0,no,no,no,4435293,SPIT,USIABP,ICE-PPR<br>DiskoBay,North
2021-08-21T01:46:59Z,1629510420,2021,1,47,233.0743,233.0743,70.00077,-52.44226,-999.00,-999.00,-999.0,no,no,no,4435293,SPIT,USIABP,ICE-PPR<br>DiskoBay,North
2021-08-21T02:15:56Z,1629512156,2021,2,16,233.0944,233.0944,70.00351,-52.45923,-999.00,-999.00,-999.0,no,no,no,4435293,SPIT,USIABP,ICE-PPR<br>DiskoBay,North
2021-08-21T02:46:01Z,1629513962,2021,2,46,233.1153,233.1153,70.00484,-52.46979,-999.00,-999.00,-999.0,no,no,no,4435293,SPIT,USIABP,ICE-PPR<br>DiskoBay,North
2021-08-21T03:16:59Z,1629515820,2021,3,17,233.1368,233.1368,70.0072,-52.4809,-999.00,-999.00,-999.0,no,no,no,4435293,SPIT,USIABP,ICE-PPR<br>DiskoBay,North
2021-08-21T03:45:56Z,1629517556,2021,3,46,233.1569,233.1569,70.00935,-52.48578,-999.00,-999.00,-999.0,no,no,no,4435293,SPIT,USIABP,ICE-PPR<br>DiskoBay,North
2021-08-21T04:17:02Z,1629519422,2021,4,17,233.1785,233.1785,70.01134,-52.48904,-999.00,-999.00,-999.0,no,no,no,4435293,SPIT,USIABP,ICE-PPR<br>DiskoBay,North
2021-08-21T04:45:59Z,1629521159,2021,4,46,233.1986,233.1986,70.01308,-52.49042,-999.00,-999.00,-999.0,no,no,no,4435293,SPIT,USIABP,ICE-PPR<br>DiskoBay,North
2021-08-21T05:16:56Z,1629523017,2021,5,17,233.2201,233.2201,70.01396,-52.49112,-999.00,-999.00,-999.0,no,no,no,4435293,SPIT,USIABP,ICE-PPR<br>DiskoBay,North
2021-08-21T05:46:01Z,1629524762,2021,5,46,233.2403,233.2403,70.01381,-52.49064,-999.00,-999.00,-999.0,no,no,no,4435293,SPIT,USIABP,ICE-PPR<br>DiskoBay,North
2021-08-21T06:15:59Z,1629526559,2021,6,16,233.2611,233.2611,70.0142,-52.48944,-999.00,-999.00,-999.0,no,no,no,4435293,SPIT,USIABP,ICE-PPR<br>DiskoBay,North
2021-08-21T09:44:03Z,1629539044,2021,9,44,233.4056,233.4056,70.01073,-52.45959,-999.00,-999.00,-999.0,no,no,no,4435293,SPIT,USIABP,ICE-PPR<br>DiskoBay,North
2021-08-21T10:44:58Z,1629542699,2021,10,45,233.4479,233.4479,70.01244,-52.46348,-999.00,-999.00,-999.0,no,no,no,4435293,SPIT,USIABP,ICE-PPR<br>DiskoBay,North
2021-08-21T11:15:04Z,1629544504,2021,11,15,233.4688,233.4688,70.01313,-52.46365,-999.00,-999.00,-999.0,no,no,no,4435293,SPIT,USIABP,ICE-PPR<br>DiskoBay,North
2021-08-21T11:44:00Z,1629546241,2021,11,44,233.4889,233.4889,70.01322,-52.46606,-999.00,-999.00,-999.0,no,no,no,4435293,SPIT,USIABP,ICE-PPR<br>DiskoBay,North
2021-08-21T13:14:00Z,1629551641,2021,13,14,233.5514,233.5514,70.01389,-52.47638,-999.00,-999.00,-999.0,no,no,no,4435293,SPIT,USIABP,ICE-PPR<br>DiskoBay,North
2021-08-21T14:13:03Z,1629555183,2021,14,13,233.5924,233.5924,70.01616,-52.49287,-999.00,-999.00,-999.0,no,no,no,4435293,SPIT,USIABP,ICE-PPR<br>DiskoBay,North
2021-08-21T14:43:00Z,1629556980,2021,14,43,233.6132,233.6132,70.01555,-52.50274,-999.00,-999.00,-999.0,no,no,no,4435293,SPIT,USIABP,ICE-PPR<br>DiskoBay,North
2021-08-21T15:12:57Z,1629558778,2021,15,13,233.634,233.634,70.01582,-52.51175,-999.00,-999.00,-999.0,no,no,no,4435293,SPIT,USIABP,ICE-PPR<br>DiskoBay,North
2021-08-21T18:41:02Z,1629571262,2021,18,41,233.7785,233.7785,70.01902,-52.50711,-999.00,-999.00,-999.0,no,no,no,4435293,SPIT,USIABP,ICE-PPR<br>DiskoBay,North
2021-08-21T19:10:59Z,1629573060,2021,19,11,233.7993,233.7993,70.01678,-52.49989,-999.00,-999.00,-999.0,no,no,no,4435293,SPIT,USIABP,ICE-PPR<br>DiskoBay,North
2021-08-21T19:40:56Z,1629574857,2021,19,41,233.8201,233.8201,70.01416,-52.49328,-999.00,-999.00,-999.0,no,no,no,4435293,SPIT,USIABP,ICE-PPR<br>DiskoBay,North
2021-08-21T20:11:02Z,1629576662,2021,20,11,233.841,233.841,70.01214,-52.48959,-999.00,-999.00,-999.0,no,no,no,4435293,SPIT,USIABP,ICE-PPR<br>DiskoBay,North
2021-08-21T21:10:56Z,1629580257,2021,21,11,233.8826,233.8826,70.00891,-52.48108,-999.00,-999.00,-999.0,no,no,no,4435293,SPIT,USIABP,ICE-PPR<br>DiskoBay,North
2021-08-21T21:41:02Z,1629582062,2021,21,41,233.9035,233.9035,70.00839,-52.47885,-999.00,-999.00,-999.0,no,no,no,4435293,SPIT,USIABP,ICE-PPR<br>DiskoBay,North
2021-08-21T22:10:59Z,1629583860,2021,22,11,233.9243,233.9243,70.00819,-52.47748,-999.00,-999.00,-999.0,no,no,no,4435293,SPIT,USIABP,ICE-PPR<br>DiskoBay,North
2021-08-21T22:39:56Z,1629585596,2021,22,40,233.9444,233.9444,70.00821,-52.47668,-999.00,-999.00,-999.0,no,no,no,4435293,SPIT,USIABP,ICE-PPR<br>DiskoBay,North
2021-08-21T23:38:58Z,1629589139,2021,23,39,233.9854,233.9854,70.00588,-52.48282,-999.00,-999.00,-999.0,no,no,no,4435293,SPIT,USIABP,ICE-PPR<br>DiskoBay,North
2021-08-22T00:08:55Z,1629590936,2021,0,9,234.0062,234.0062,70.00537,-52.49312,-999.00,-999.00,-999.0,no,no,no,4435293,SPIT,USIABP,ICE-PPR<br>DiskoBay,North
2021-08-22T00:39:01Z,1629592741,2021,0,39,234.0271,234.0271,70.00454,-52.50668,-999.00,-999.00,-999.0,no,no,no,4435293,SPIT,USIABP,ICE-PPR<br>DiskoBay,North
2021-08-22T01:08:58Z,1629594539,2021,1,9,234.0479,234.0479,70.00411,-52.52373,-999.00,-999.00,-999.0,no,no,no,4435293,SPIT,USIABP,ICE-PPR<br>DiskoBay,North
2021-08-22T01:38:55Z,1629596336,2021,1,39,234.0687,234.0687,70.00445,-52.54098,-999.00,-999.00,-999.0,no,no,no,4435293,SPIT,USIABP,ICE-PPR<br>DiskoBay,North
2021-08-22T02:09:01Z,1629598141,2021,2,9,234.0896,234.0896,70.00621,-52.56201,-999.00,-999.00,-999.0,no,no,no,4435293,SPIT,USIABP,ICE-PPR<br>DiskoBay,North
2021-08-22T02:37:58Z,1629599878,2021,2,38,234.1097,234.1097,70.00876,-52.58099,-999.00,-999.00,-999.0,no,no,no,4435293,SPIT,USIABP,ICE-PPR<br>DiskoBay,North
2021-08-22T03:08:03Z,1629601684,2021,3,8,234.1306,234.1306,70.01169,-52.6001,-999.00,-999.00,-999.0,no,no,no,4435293,SPIT,USIABP,ICE-PPR<br>DiskoBay,North
2021-08-22T03:38:00Z,1629603481,2021,3,38,234.1514,234.1514,70.01425,-52.61812,-999.00,-999.00,-999.0,no,no,no,4435293,SPIT,USIABP,ICE-PPR<br>DiskoBay,North
2021-08-22T04:07:58Z,1629605278,2021,4,8,234.1722,234.1722,70.01714,-52.63391,-999.00,-999.00,-999.0,no,no,no,4435293,SPIT,USIABP,ICE-PPR<br>DiskoBay,North
2021-08-22T04:37:03Z,1629607023,2021,4,37,234.1924,234.1924,70.02018,-52.64595,-999.00,-999.00,-999.0,no,no,no,4435293,SPIT,USIABP,ICE-PPR<br>DiskoBay,North
2021-08-22T05:07:00Z,1629608820,2021,5,7,234.2132,234.2132,70.02318,-52.65213,-999.00,-999.00,-999.0,no,no,no,4435293,SPIT,USIABP,ICE-PPR<br>DiskoBay,North
2021-08-22T05:36:57Z,1629610618,2021,5,37,234.234,234.234,70.02661,-52.65591,-999.00,-999.00,-999.0,no,no,no,4435293,SPIT,USIABP,ICE-PPR<br>DiskoBay,North
2021-08-22T06:07:03Z,1629612423,2021,6,7,234.2549,234.2549,70.0276,-52.65466,-999.00,-999.00,-999.0,no,no,no,4435293,SPIT,USIABP,ICE-PPR<br>DiskoBay,North
2021-08-22T06:37:00Z,1629614220,2021,6,37,234.2757,234.2757,70.02708,-52.65185,-999.00,-999.00,-999.0,no,no,no,4435293,SPIT,USIABP,ICE-PPR<br>DiskoBay,North
2021-08-22T07:06:57Z,1629616018,2021,7,7,234.2965,234.2965,70.02661,-52.64739,-999.00,-999.00,-999.0,no,no,no,4435293,SPIT,USIABP,ICE-PPR<br>DiskoBay,North
2021-08-22T07:37:03Z,1629617823,2021,7,37,234.3174,234.3174,70.02634,-52.6413,-999.00,-999.00,-999.0,no,no,no,4435293,SPIT,USIABP,ICE-PPR<br>DiskoBay,North
2021-08-22T08:06:00Z,1629619560,2021,8,6,234.3375,234.3375,70.02454,-52.63722,-999.00,-999.00,-999.0,no,no,no,4435293,SPIT,USIABP,ICE-PPR<br>DiskoBay,North
2021-08-22T08:35:57Z,1629621357,2021,8,36,234.3583,234.3583,70.02235,-52.63568,-999.00,-999.00,-999.0,no,no,no,4435293,SPIT,USIABP,ICE-PPR<br>DiskoBay,North
2021-08-22T09:06:02Z,1629623163,2021,9,6,234.3792,234.3792,70.0196,-52.63293,-999.00,-999.00,-999.0,no,no,no,4435293,SPIT,USIABP,ICE-PPR<br>DiskoBay,North
2021-08-22T09:36:00Z,1629624960,2021,9,36,234.4,234.4,70.01756,-52.63257,-999.00,-999.00,-999.0,no,no,no,4435293,SPIT,USIABP,ICE-PPR<br>DiskoBay,North
2021-08-22T10:05:57Z,1629626757,2021,10,6,234.4208,234.4208,70.01649,-52.63346,-999.00,-999.00,-999.0,no,no,no,4435293,SPIT,USIABP,ICE-PPR<br>DiskoBay,North
2021-08-22T10:36:02Z,1629628563,2021,10,36,234.4417,234.4417,70.01589,-52.6338,-999.00,-999.00,-999.0,no,no,no,4435293,SPIT,USIABP,ICE-PPR<br>DiskoBay,North
2021-08-22T11:06:00Z,1629630360,2021,11,6,234.4625,234.4625,70.01512,-52.63852,-999.00,-999.00,-999.0,no,no,no,4435293,SPIT,USIABP,ICE-PPR<br>DiskoBay,North
2021-08-22T11:35:57Z,1629632157,2021,11,36,234.4833,234.4833,70.01434,-52.64387,-999.00,-999.00,-999.0,no,no,no,4435293,SPIT,USIABP,ICE-PPR<br>DiskoBay,North
2021-08-22T12:06:02Z,1629633963,2021,12,6,234.5042,234.5042,70.01378,-52.65134,-999.00,-999.00,-999.0,no,no,no,4435293,SPIT,USIABP,ICE-PPR<br>DiskoBay,North
2021-08-22T12:36:00Z,1629635760,2021,12,36,234.525,234.525,70.01339,-52.66147,-999.00,-999.00,-999.0,no,no,no,4435293,SPIT,USIABP,ICE-PPR<br>DiskoBay,North
2021-08-22T13:05:57Z,1629637557,2021,13,6,234.5458,234.5458,70.0138,-52.67255,-999.00,-999.00,-999.0,no,no,no,4435293,SPIT,USIABP,ICE-PPR<br>DiskoBay,North
2021-08-22T13:35:02Z,1629639302,2021,13,35,234.566,234.566,70.01515,-52.68332,-999.00,-999.00,-999.0,no,no,no,4435293,SPIT,USIABP,ICE-PPR<br>DiskoBay,North
2021-08-22T14:04:59Z,1629641100,2021,14,5,234.5868,234.5868,70.01805,-52.69458,-999.00,-999.00,-999.0,no,no,no,4435293,SPIT,USIABP,ICE-PPR<br>DiskoBay,North
2021-08-22T14:34:56Z,1629642897,2021,14,35,234.6076,234.6076,70.02157,-52.70471,-999.00,-999.00,-999.0,no,no,no,4435293,SPIT,USIABP,ICE-PPR<br>DiskoBay,North
2021-08-22T15:05:02Z,1629644702,2021,15,5,234.6285,234.6285,70.02561,-52.71287,-999.00,-999.00,-999.0,no,no,no,4435293,SPIT,USIABP,ICE-PPR<br>DiskoBay,North
2021-08-22T15:34:59Z,1629646500,2021,15,35,234.6493,234.6493,70.02916,-52.72034,-999.00,-999.00,-999.0,no,no,no,4435293,SPIT,USIABP,ICE-PPR<br>DiskoBay,North
2021-08-22T16:03:56Z,1629648236,2021,16,4,234.6694,234.6694,70.03212,-52.72666,-999.00,-999.00,-999.0,no,no,no,4435293,SPIT,USIABP,ICE-PPR<br>DiskoBay,North
2021-08-22T16:34:01Z,1629650042,2021,16,34,234.6903,234.6903,70.03418,-52.73087,-999.00,-999.00,-999.0,no,no,no,4435293,SPIT,USIABP,ICE-PPR<br>DiskoBay,North
2021-08-22T17:03:59Z,1629651839,2021,17,4,234.7111,234.7111,70.03498,-52.73059,-999.00,-999.00,-999.0,no,no,no,4435293,SPIT,USIABP,ICE-PPR<br>DiskoBay,North
2021-08-22T17:33:56Z,1629653636,2021,17,34,234.7319,234.7319,70.0361,-52.73087,-999.00,-999.00,-999.0,no,no,no,4435293,SPIT,USIABP,ICE-PPR<br>DiskoBay,North
2021-08-22T18:04:01Z,1629655442,2021,18,4,234.7528,234.7528,70.03661,-52.72632,-999.00,-999.00,-999.0,no,no,no,4435293,SPIT,USIABP,ICE-PPR<br>DiskoBay,North
2021-08-22T18:33:59Z,1629657239,2021,18,34,234.7736,234.7736,70.03726,-52.71951,-999.00,-999.00,-999.0,no,no,no,4435293,SPIT,USIABP,ICE-PPR<br>DiskoBay,North
2021-08-22T19:03:56Z,1629659036,2021,19,4,234.7944,234.7944,70.03686,-52.71359,-999.00,-999.00,-999.0,no,no,no,4435293,SPIT,USIABP,ICE-PPR<br>DiskoBay,North
2021-08-22T19:33:01Z,1629660781,2021,19,33,234.8146,234.8146,70.03551,-52.71098,-999.00,-999.00,-999.0,no,no,no,4435293,SPIT,USIABP,ICE-PPR<br>DiskoBay,North
2021-08-22T20:02:58Z,1629662579,2021,20,3,234.8354,234.8354,70.03366,-52.70883,-999.00,-999.00,-999.0,no,no,no,4435293,SPIT,USIABP,ICE-PPR<br>DiskoBay,North
2021-08-22T20:33:04Z,1629664384,2021,20,33,234.8563,234.8563,70.03147,-52.7048,-999.00,-999.00,-999.0,no,no,no,4435293,SPIT,USIABP,ICE-PPR<br>DiskoBay,North
2021-08-22T21:03:01Z,1629666181,2021,21,3,234.8771,234.8771,70.0294,-52.70221,-999.00,-999.00,-999.0,no,no,no,4435293,SPIT,USIABP,ICE-PPR<br>DiskoBay,North
2021-08-22T21:32:58Z,1629667979,2021,21,33,234.8979,234.8979,70.02837,-52.70265,-999.00,-999.00,-999.0,no,no,no,4435293,SPIT,USIABP,ICE-PPR<br>DiskoBay,North
2021-08-22T22:02:55Z,1629669776,2021,22,3,234.9187,234.9187,70.02768,-52.70334,-999.00,-999.00,-999.0,no,no,no,4435293,SPIT,USIABP,ICE-PPR<br>DiskoBay,North
2021-08-22T22:32:00Z,1629671521,2021,22,32,234.9389,234.9389,70.02699,-52.70679,-999.00,-999.00,-999.0,no,no,no,4435293,SPIT,USIABP,ICE-PPR<br>DiskoBay,North
2021-08-22T23:01:58Z,1629673318,2021,23,2,234.9597,234.9597,70.02746,-52.71145,-999.00,-999.00,-999.0,no,no,no,4435293,SPIT,USIABP,ICE-PPR<br>DiskoBay,North
2021-08-22T23:32:03Z,1629675124,2021,23,32,234.9806,234.9806,70.02755,-52.71643,-999.00,-999.00,-999.0,no,no,no,4435293,SPIT,USIABP,ICE-PPR<br>DiskoBay,North
2021-08-23T00:02:00Z,1629676921,2021,0,2,235.0014,235.0014,70.02798,-52.72699,-999.00,-999.00,-999.0,no,no,no,4435293,SPIT,USIABP,ICE-PPR<br>DiskoBay,North
2021-08-23T02:30:02Z,1629685803,2021,2,30,235.1042,235.1042,70.05092,-52.79519,-999.00,-999.00,-999.0,no,no,no,4435293,SPIT,USIABP,ICE-PPR<br>DiskoBay,North
2021-08-23T03:00:00Z,1629687600,2021,3,0,235.125,235.125,70.05723,-52.80927,-999.00,-999.00,-999.0,no,no,no,4435293,SPIT,USIABP,ICE-PPR<br>DiskoBay,North
2021-08-23T03:29:57Z,1629689397,2021,3,30,235.1458,235.1458,70.06341,-52.82077,-999.00,-999.00,-999.0,no,no,no,4435293,SPIT,USIABP,ICE-PPR<br>DiskoBay,North
2021-08-23T04:00:02Z,1629691203,2021,4,0,235.1667,235.1667,70.07001,-52.83105,-999.00,-999.00,-999.0,no,no,no,4435293,SPIT,USIABP,ICE-PPR<br>DiskoBay,North
2021-08-23T06:00:00Z,1629698400,2021,6,0,235.25,235.25,70.08343,-52.8442,-999.00,-999.00,-999.0,no,no,no,4435293,SPIT,USIABP,ICE-PPR<br>DiskoBay,North